Wind_Speed
19 18 16 17 17 16 16 15 16 15 15 15 14 13 13 13 14 14 14 15 15 16 16 16 16 17 16 17 16 15 16 16 17 18 18 18 19 19 19 20 21 22 22 21 21 21 21 20 20 20 20 19 19 20 21 20 20 20 20 20 20 20 20 20 19 19 19 19 19 19 18 18 18 18 18 18 18 17 17 18 17 17 18 18 17
19 18 17 18 17 17 16 16 16 15 15 15 14 14 13 13 14 14 15 15 15 15 15 15 15 16 16 16 16 15 15 15 17 18 18 18 19 19 20 21 21 21 21 20 20 20 20 20 20 20 20 19 19 20 20 20 20 20 20 20 20 20 20 20 20 20 19 19 19 19 18 18 18 18 18 18 18 17 17 17 16 17 18 17 16
19 18 18 18 17 17 16 16 16 15 15 15 14 14 14 13 13 14 15 15 15 15 14 14 15 15 15 15 15 15 15 15 17 18 18 18 19 19 20 21 21 21 20 20 19 19 19 20 20 20 19 19 19 20 20 20 20 20 20 19 20 20 20 20 20 19 19 19 18 19 19 19 19 18 18 18 18 17 16 16 16 17 17 16 16
19 19 18 17 17 17 16 16 16 16 15 15 14 13 13 13 13 13 14 14 14 14 13 14 14 15 14 14 14 14 14 15 17 17 18 19 19 19 20 21 21 21 20 20 20 19 19 19 20 20 19 19 19 19 19 20 20 19 19 19 19 19 19 19 19 19 18 18 18 19 19 19 19 19 18 18 17 16 16 16 16 16 16 16 16
20 19 18 17 16 16 16 16 16 16 15 14 13 12 12 12 12 12 12 13 13 13 13 13 13 14 13 13 13 13 13 14 16 17 18 18 19 19 19 20 20 20 20 20 20 19 19 19 19 19 19 19 19 19 19 19 19 18 18 18 18 18 19 19 18 18 18 17 17 18 18 18 19 18 17 17 16 15 15 15 15 15 15 15 15
19 18 17 17 16 16 17 16 16 15 14 13 12 11 11 11 11 11 11 12 12 12 12 12 11 12 13 13 13 13 13 14 15 16 17 18 18 18 19 19 19 19 20 19 20 19 18 18 18 18 18 18 18 18 18 18 18 18 17 17 17 18 18 18 18 17 16 16 16 17 17 17 17 17 16 15 15 14 14 14 14 14 13 13 13
18 18 17 17 16 16 16 16 16 15 14 12 12 11 10 10 10 10 10 10 11 11 11 11 11 12 12 12 13 12 13 14 15 15 17 18 18 18 18 18 19 19 19 18 19 19 18 18 18 18 17 18 18 18 18 18 17 17 17 16 16 17 17 17 16 16 15 15 15 15 15 15 16 16 15 14 14 14 14 13 13 13 13 12 12
19 18 17 17 16 15 15 15 14 14 13 11 11 10 10 10 10 9 9 9 10 10 10 10 11 11 12 11 12 12 13 14 14 15 16 17 17 17 17 17 18 18 18 18 18 18 18 17 18 18 17 17 18 18 18 17 16 16 16 16 16 16 17 16 15 15 14 14 14 13 13 13 14 15 14 14 14 14 13 13 13 12 12 11 11
19 18 17 16 14 14 14 13 12 12 12 11 10 9 9 9 10 9 9 9 9 10 10 10 11 11 12 12 12 13 13 14 14 14 15 16 16 16 16 16 17 18 18 17 17 17 17 17 17 17 18 18 19 18 18 17 16 15 16 16 15 15 15 15 15 14 14 14 13 12 12 12 13 14 13 13 13 13 13 12 12 12 11 10 11
18 17 15 14 14 13 13 12 11 11 11 10 9 9 9 8 9 9 9 9 9 10 10 10 11 10 11 12 12 12 13 13 14 14 15 15 15 15 15 15 16 17 18 17 17 17 17 17 17 17 18 18 18 18 17 16 15 15 16 16 15 14 14 14 14 14 13 13 13 12 11 10 11 13 13 12 12 12 11 11 11 10 10 9 10
17 16 15 15 14 14 13 12 11 11 10 9 9 8 8 8 8 9 9 9 9 10 9 9 10 10 11 12 12 12 12 13 13 14 15 15 15 14 14 14 15 17 18 18 17 17 17 17 17 17 18 18 17 17 16 16 15 15 16 16 15 15 15 15 14 13 12 11 11 11 11 10 10 12 12 11 11 11 10 10 9 9 9 9 9
18 16 16 16 15 15 13 12 12 11 10 10 9 9 9 9 8 9 9 8 9 9 10 10 10 11 11 12 12 12 12 13 13 14 15 15 14 14 13 14 16 18 19 18 17 17 17 17 17 17 17 17 16 16 16 16 15 16 17 16 15 15 14 14 13 12 12 10 9 9 10 10 10 11 10 10 11 10 9 9 9 8 9 9 9
19 17 17 16 16 14 13 12 12 11 11 11 10 10 10 10 9 9 10 9 9 10 11 11 11 11 12 12 12 11 12 13 13 14 14 14 14 14 14 17 19 20 19 17 17 17 17 17 17 17 16 16 15 16 16 16 16 16 16 16 15 15 14 13 11 11 10 10 9 9 9 9 10 10 10 10 9 9 9 8 8 8 8 8 7
19 18 16 15 15 13 13 12 12 12 12 11 12 11 11 10 10 9 10 9 9 10 11 11 11 12 12 12 12 12 12 13 14 15 15 15 15 15 16 18 19 19 18 17 17 17 17 16 16 15 15 15 14 14 15 15 15 15 15 16 15 14 13 11 10 10 9 8 9 9 9 9 10 9 9 8 8 8 7 6 6 7 8 7 6
17 17 16 15 14 14 13 12 12 12 12 13 12 12 11 11 10 10 10 10 9 10 11 11 11 12 12 12 12 12 12 13 14 15 15 16 16 15 17 19 19 18 17 17 16 16 16 15 15 14 14 14 14 14 15 15 15 14 14 15 14 14 12 9 8 9 8 8 8 9 9 8 8 7 7 6 6 6 5 4 5 6 7 6 5
16 16 16 15 15 14 13 13 13 12 13 12 11 11 11 10 10 10 10 9 10 10 11 11 12 12 12 12 12 13 13 13 14 15 15 16 16 16 17 18 18 18 17 16 15 15 14 14 15 15 15 15 15 15 15 15 14 13 13 13 13 13 12 8 7 8 8 8 8 8 8 7 6 6 5 5 5 4 4 4 5 5 5 5 6
16 16 15 15 14 14 13 13 13 13 13 12 11 11 10 10 10 10 10 9 10 10 11 11 12 13 13 13 13 13 13 13 14 15 16 16 16 16 17 17 18 18 17 16 15 15 15 15 16 16 16 15 15 15 15 15 15 14 14 14 12 12 11 7 6 9 9 8 8 8 7 6 5 5 5 5 5 5 5 5 5 5 5 5 6
15 15 15 14 14 13 13 13 13 13 13 13 13 12 11 11 10 10 10 10 9 10 11 11 12 13 14 14 14 14 14 14 14 15 16 16 16 17 17 17 17 17 17 16 15 16 16 17 17 17 16 15 15 14 15 16 16 17 16 14 11 11 11 8 8 10 8 7 7 7 6 5 5 4 5 5 5 6 6 6 6 5 5 6 7
16 15 15 14 13 13 14 13 13 13 13 13 13 13 12 11 11 11 11 10 10 11 12 12 13 14 15 16 15 15 15 16 16 16 17 17 17 17 17 17 17 17 16 16 16 17 17 16 17 16 16 15 15 14 15 16 17 18 16 13 11 10 10 8 8 9 7 6 6 6 6 5 4 4 5 5 6 6 6 6 6 6 6 6 8
15 14 14 14 14 13 14 13 13 13 13 14 14 15 13 13 13 12 13 12 11 12 14 14 14 15 16 16 16 16 16 17 17 17 18 18 18 17 17 18 17 17 17 16 16 17 16 16 16 16 16 15 15 15 15 16 17 17 15 14 12 9 7 6 7 7 5 5 6 6 5 5 4 4 5 5 5 6 6 6 6 6 7 7 8
15 15 14 14 14 13 14 14 14 14 15 15 15 17 15 14 14 14 13 13 12 12 14 15 15 16 17 17 17 17 18 18 18 18 18 19 18 18 18 18 17 18 18 17 16 16 16 16 16 16 16 16 16 16 15 14 13 13 14 15 14 9 5 4 6 6 5 5 5 5 5 5 5 4 4 4 4 5 5 6 6 7 8 8 8
16 16 15 14 14 14 15 14 15 16 16 15 16 18 15 13 14 14 14 13 13 13 15 16 16 17 17 18 18 18 18 18 18 18 19 19 18 18 18 18 18 18 18 17 17 16 16 16 16 16 16 17 17 17 15 13 12 12 13 15 16 12 6 2 6 6 5 5 5 5 5 5 4 3 3 3 4 5 5 6 7 7 8 8 7
18 17 16 15 14 15 15 14 15 16 16 16 17 17 16 14 13 14 15 15 15 15 16 17 18 18 18 19 19 19 20 19 19 19 20 19 18 18 18 18 18 18 17 17 17 17 17 17 16 15 16 16 17 17 16 15 15 15 14 14 15 13 8 2 7 6 6 6 6 5 5 4 3 3 3 3 4 5 6 7 7 8 7 7 7
17 17 16 15 15 15 15 15 15 17 16 16 17 17 16 14 14 16 16 16 17 17 17 18 19 19 20 20 20 21 20 20 19 19 20 19 19 18 18 18 18 17 17 17 17 17 17 16 15 14 14 15 15 15 15 14 12 11 11 12 12 11 6 3 7 7 7 6 6 6 5 4 3 4 4 4 4 5 7 7 8 8 7 7 6
15 15 16 16 16 15 15 16 16 18 17 16 16 16 16 16 15 16 18 18 18 18 19 19 20 20 21 21 21 20 20 20 19 19 20 20 20 19 18 18 17 17 17 16 16 16 15 15 14 14 14 14 15 14 13 12 10 9 9 10 12 10 2 5 6 7 8 6 6 5 5 5 5 5 4 4 5 6 7 7 8 7 7 6 5
13 15 16 17 16 15 16 17 17 17 17 17 16 16 17 17 17 16 18 18 17 19 20 20 20 20 20 20 20 19 19 19 19 20 20 20 20 19 18 17 16 16 16 16 16 16 15 15 15 13 13 13 13 12 11 11 11 9 9 9 10 8 0 6 7 8 9 7 6 6 6 6 6 5 5 5 5 6 7 7 7 7 6 6 5
13 14 15 16 16 16 16 16 17 17 17 17 16 17 18 18 17 16 17 18 18 19 20 20 20 20 20 20 19 19 18 19 19 19 19 19 18 18 17 16 16 15 15 15 15 15 15 15 15 14 13 13 12 12 10 11 12 9 9 8 6 5 2 5 7 9 10 7 7 6 6 6 6 5 5 5 6 6 7 6 7 7 7 6 6
14 15 15 16 16 15 15 15 16 17 18 18 18 18 18 18 17 16 16 18 18 18 19 20 21 20 19 19 18 18 18 18 18 18 17 17 16 16 15 15 14 14 14 15 13 13 13 14 14 13 12 11 11 11 9 9 10 8 9 6 5 5 3 4 7 8 9 7 7 7 6 6 6 6 6 6 6 7 7 7 7 7 7 6 6
13 15 16 15 14 15 16 15 15 17 18 18 18 18 18 18 17 17 17 17 18 19 19 20 21 20 19 18 17 18 18 18 17 16 16 15 14 14 14 14 13 13 13 13 12 11 12 12 12 10 9 6 6 8 7 8 4 5 9 7 4 4 0 5 9 9 8 7 7 6 6 7 7 7 6 6 7 7 8 7 8 7 7 7 7
13 15 15 15 14 14 15 15 15 17 19 18 18 19 17 17 17 17 17 17 18 19 19 20 20 19 18 17 16 16 16 16 16 16 16 15 14 15 14 14 14 13 12 10 10 10 10 10 9 8 6 3 3 5 5 7 2 2 6 6 6 5 5 9 12 11 9 7 7 7 7 7 7 7 7 7 7 8 8 8 8 8 8 8 8
12 14 14 15 15 15 15 14 15 18 21 19 18 19 18 17 16 16 16 16 17 19 20 20 19 18 17 17 16 15 14 15 15 15 16 16 15 15 14 12 12 11 9 8 8 7 7 7 7 7 8 7 8 9 8 7 5 4 5 5 6 5 6 9 11 13 10 6 7 7 7 7 7 7 7 8 8 8 9 9 9 8 8 9 9
13 14 14 15 14 14 15 14 15 18 20 21 19 19 19 18 17 16 16 16 16 18 19 19 18 16 15 17 16 14 14 15 16 16 16 15 14 14 12 10 9 8 7 7 6 7 7 7 8 10 10 10 10 10 10 7 5 6 5 4 4 6 5 7 10 11 9 5 6 7 7 7 7 8 8 8 8 9 9 9 9 9 9 10 10
14 13 14 15 14 13 14 14 15 17 19 21 20 19 19 19 18 17 16 15 16 18 19 19 17 16 15 15 14 14 14 15 16 16 15 13 12 12 10 9 8 7 6 7 7 8 8 8 9 11 11 10 10 9 7 6 6 9 6 3 5 9 6 4 8 8 7 6 6 7 7 7 8 8 9 9 8 9 10 10 10 10 10 10 11
15 13 14 15 14 14 15 15 16 17 17 18 19 20 19 19 18 17 16 14 15 18 19 19 18 18 16 14 13 14 15 16 15 13 11 11 10 10 9 8 6 5 6 7 7 5 5 8 8 8 7 6 6 4 4 6 7 8 5 2 5 9 7 4 5 4 4 6 5 6 6 7 8 8 9 9 9 9 10 10 10 10 10 10 11
17 16 15 15 14 13 16 18 18 18 17 17 18 19 18 18 18 16 15 12 13 16 18 18 18 17 15 14 14 14 16 17 14 11 9 10 9 8 7 6 5 6 8 7 6 6 5 8 8 7 7 6 4 4 4 6 4 6 7 5 5 5 6 4 2 1 3 6 6 7 7 6 8 9 10 10 10 10 10 10 10 10 10 11 11
20 20 18 16 13 11 15 19 19 19 18 17 17 17 16 17 17 15 14 11 11 14 17 18 16 14 14 14 15 16 18 17 14 12 11 9 8 7 7 7 7 7 8 8 8 8 7 8 8 8 9 9 9 9 9 7 5 7 8 6 5 5 7 5 3 2 3 4 6 9 9 8 7 8 10 10 10 9 10 10 10 10 10 11 12
22 22 20 18 15 12 13 16 18 18 17 17 16 15 16 17 17 15 15 12 10 13 15 16 15 13 13 15 16 19 20 18 17 15 12 11 9 8 9 9 7 7 7 8 9 8 8 8 8 9 10 10 9 8 7 7 8 9 8 7 6 6 7 5 6 6 1 2 3 6 8 10 8 6 8 10 9 9 9 10 10 11 11 12 13
24 23 21 19 18 16 13 14 16 16 16 16 16 15 16 17 17 17 16 12 12 12 12 14 15 15 15 15 17 20 21 20 19 16 13 12 9 9 10 8 7 8 7 7 7 6 7 8 9 10 11 9 6 5 5 5 5 8 8 7 5 5 6 7 9 8 4 2 1 2 4 9 9 6 8 9 8 7 7 8 9 10 11 12 13
23 22 22 20 20 18 17 17 16 16 18 17 17 17 17 16 16 17 16 13 13 12 11 13 15 16 16 16 16 17 19 20 19 16 14 11 9 9 9 8 9 8 6 7 7 6 6 7 9 10 10 9 7 7 7 6 2 9 9 5 3 3 6 9 10 7 4 3 2 2 0 6 9 6 7 9 7 6 4 4 6 8 10 12 12
23 23 23 21 21 21 21 20 18 20 21 19 19 20 19 18 17 17 17 16 15 13 13 12 12 15 17 16 16 15 17 18 17 17 15 12 10 8 7 7 9 8 6 7 7 7 7 8 9 10 11 10 9 7 6 6 8 10 6 1 4 4 5 8 9 6 5 5 4 3 3 2 7 6 8 9 6 5 4 3 4 6 9 9 9
24 24 23 23 24 24 24 21 19 20 21 21 21 21 21 20 19 19 19 18 16 14 15 13 11 15 16 15 16 16 16 16 15 15 13 11 9 7 7 7 8 7 7 8 7 7 8 9 10 10 10 9 8 7 6 4 8 9 4 2 3 5 5 7 8 9 6 5 6 5 6 3 4 7 8 8 6 6 6 7 5 5 7 8 8
25 24 23 24 25 25 23 19 19 21 21 22 22 21 20 20 21 22 21 19 16 13 13 11 12 15 14 14 15 15 15 14 13 12 10 8 7 7 7 7 8 7 7 7 7 8 8 9 9 8 8 9 7 6 6 4 5 7 4 2 3 3 4 4 5 10 8 6 6 5 8 7 1 6 6 6 5 6 7 9 9 7 7 8 9
26 25 23 22 24 25 22 19 19 21 21 22 22 20 19 18 20 21 21 20 18 14 11 10 12 14 14 14 14 14 13 12 12 10 8 7 7 7 7 7 8 7 6 7 7 8 8 8 8 8 8 8 8 7 5 3 3 7 7 4 3 2 4 4 5 8 8 6 6 4 9 9 0 5 4 4 4 6 6 7 9 10 9 8 10
25 25 23 22 23 24 23 19 19 21 22 22 20 20 19 17 18 17 18 20 19 17 14 11 10 13 14 13 13 13 12 11 10 9 8 8 7 7 6 6 7 8 8 7 8 8 8 9 8 8 6 5 7 8 6 4 2 4 5 3 3 4 4 4 4 6 6 6 8 5 8 10 3 2 2 3 5 6 6 4 6 9 9 9 11
24 24 24 23 22 23 23 20 20 22 22 21 19 19 20 19 18 17 18 19 19 18 17 15 11 13 15 13 12 12 12 11 10 9 9 7 7 7 6 7 7 8 9 8 8 7 8 9 9 7 5 4 6 8 7 4 1 2 3 2 2 3 2 5 3 3 0 2 8 9 9 9 6 3 1 5 7 5 6 5 6 8 8 10 12
24 23 23 23 22 23 22 20 21 22 23 22 20 21 21 20 20 20 21 21 20 19 18 17 13 13 14 13 13 12 12 11 10 10 9 7 6 6 7 8 7 7 9 9 8 7 8 8 8 7 5 4 6 6 6 5 4 4 3 2 2 2 2 4 5 2 2 5 5 6 8 6 5 5 2 3 6 5 6 7 7 6 8 10 11
24 23 22 22 23 23 22 21 21 22 23 24 23 22 21 20 20 21 21 20 20 19 17 15 11 11 12 12 13 13 12 12 10 10 9 8 6 5 6 7 7 8 7 7 7 7 7 7 5 4 4 5 6 5 5 5 6 5 3 1 2 3 3 3 5 5 2 3 3 2 2 3 5 5 1 1 2 3 6 8 8 8 8 9 9
23 23 23 22 21 22 22 22 23 23 23 24 23 21 20 20 20 21 19 18 19 18 17 16 12 10 11 10 12 13 12 11 10 9 8 8 7 6 7 7 8 8 7 6 6 6 6 5 3 4 5 6 6 5 4 4 4 4 4 4 3 2 2 1 3 4 2 1 2 3 3 4 4 4 3 3 2 4 6 6 8 8 7 7 7
23 24 26 23 20 20 21 23 24 23 23 22 21 20 19 19 21 21 19 18 18 18 18 17 15 14 12 10 12 13 12 10 9 9 8 8 8 7 7 7 7 7 7 8 6 4 4 3 3 4 5 7 7 6 5 4 4 4 5 7 4 3 3 0 4 2 1 5 5 4 2 3 4 4 3 4 3 5 6 4 7 8 6 6 6
24 25 26 24 21 20 21 23 24 22 21 21 20 19 20 20 21 22 20 19 19 18 19 18 17 18 14 12 13 13 13 12 10 9 8 8 9 7 7 7 7 6 7 8 6 4 4 4 4 4 5 7 8 8 7 5 5 4 4 5 4 2 1 3 4 1 2 5 6 5 4 2 1 2 2 1 1 3 5 4 4 5 6 6 6
25 26 27 25 23 21 21 23 24 21 21 21 20 20 20 20 21 22 20 18 19 19 20 19 19 20 17 13 13 13 14 13 11 10 9 9 9 8 7 7 8 7 7 8 6 4 5 5 4 4 4 5 8 8 8 7 5 4 4 4 3 1 3 5 3 1 2 3 4 5 3 2 2 2 1 1 4 6 7 5 2 3 8 9 8
Wind_Direction
138 133 131 126 125 124 122 123 120 119 119 118 116 115 112 110 111 110 110 112 113 112 112 112 110 109 108 107 108 110 112 114 114 111 109 110 110 110 108 109 110 112 114 115 117 117 115 112 110 111 111 109 106 102 101 102 101 100 99 99 98 97 96 95 95 93 93 92 90 90 90 90 89 88 88 88 89 90 88 87 88 89 88 87 87
137 133 130 127 126 125 124 123 120 121 120 120 119 117 116 114 112 111 111 113 113 112 114 114 112 110 109 108 109 111 112 115 116 114 114 114 114 113 112 112 114 114 115 116 117 115 114 112 110 111 112 110 106 104 103 103 102 101 99 99 98 97 95 95 95 94 93 92 91 90 90 89 88 88 88 88 88 89 89 88 87 87 87 88 88
134 130 130 128 127 124 123 123 122 122 122 123 120 120 120 117 115 114 114 114 114 114 115 114 112 112 111 110 110 111 112 114 115 117 117 117 117 116 115 116 117 116 116 116 117 115 115 113 110 110 111 110 107 105 105 105 105 103 101 99 99 98 96 95 94 93 92 92 91 91 90 89 88 88 89 89 89 89 89 88 86 84 85 88 88
132 130 132 128 127 125 125 125 126 127 126 127 127 127 123 120 117 115 116 116 115 116 115 113 115 115 114 113 113 112 112 112 113 116 118 119 119 118 117 118 119 118 116 116 117 116 116 114 111 109 110 110 108 107 107 108 107 105 102 101 101 99 98 96 95 93 92 91 92 92 92 91 90 89 89 90 90 90 90 88 86 85 85 86 87
134 133 132 129 129 126 126 126 128 131 130 130 132 130 125 123 122 121 121 117 116 117 116 113 115 114 113 115 117 116 113 112 112 116 120 121 121 122 120 119 120 120 118 117 117 117 116 114 111 109 110 111 110 109 108 108 107 106 104 104 103 100 99 97 97 95 92 91 92 92 92 92 92 91 91 91 91 91 90 89 88 87 86 86 86
135 134 133 131 132 128 126 127 130 132 131 131 130 129 126 126 127 129 125 120 120 118 116 115 115 115 117 122 122 120 117 115 116 121 124 124 125 125 122 120 121 122 121 120 119 119 117 115 113 111 111 111 111 110 108 107 107 107 106 105 104 101 100 99 98 96 95 94 92 92 92 93 94 93 92 93 93 92 92 91 90 89 86 84 86
135 134 136 136 136 133 131 133 133 133 132 132 132 131 131 130 130 128 124 123 125 124 122 123 123 123 125 126 123 123 121 120 122 127 127 126 128 126 123 120 121 123 123 122 122 121 119 117 115 114 113 113 113 112 110 108 107 107 107 105 103 101 99 98 98 97 96 95 93 94 95 96 97 96 94 94 93 91 92 91 89 87 85 84 88
136 136 141 141 140 137 136 137 135 135 133 135 135 134 134 133 132 129 131 132 136 135 132 134 135 134 134 129 125 127 126 124 126 128 126 126 128 126 124 123 122 123 125 125 124 123 121 119 118 117 115 115 116 115 113 111 108 107 105 101 99 99 98 97 97 97 95 91 89 93 98 98 98 99 97 95 92 91 91 90 89 86 85 86 89
138 137 141 142 141 138 138 138 134 135 136 138 137 134 133 132 132 135 140 141 145 143 142 145 142 142 139 134 132 131 131 128 129 128 127 127 127 127 127 128 125 123 127 127 125 125 123 121 119 118 117 116 117 116 116 114 111 109 104 99 98 98 99 100 98 96 92 89 89 91 98 102 101 100 98 97 94 93 91 89 90 88 87 86 88
137 135 139 141 139 139 139 139 136 138 141 141 137 133 131 132 134 137 142 144 149 147 149 150 144 145 139 137 137 133 133 131 131 130 129 129 129 129 130 133 130 126 129 129 126 125 123 121 120 119 118 117 117 117 117 116 114 111 107 103 102 103 105 103 99 95 91 90 92 94 99 105 105 101 99 100 97 94 92 89 89 91 91 90 89
138 134 138 140 138 138 139 140 140 142 144 141 138 136 134 138 140 142 144 143 146 146 149 148 147 151 144 142 141 138 138 133 131 131 131 131 130 131 131 134 133 130 132 130 126 123 121 121 121 120 120 120 120 120 119 119 116 114 111 108 107 107 108 105 102 99 95 93 94 97 103 109 110 105 103 102 99 96 95 93 92 92 93 92 90
138 137 139 139 138 138 141 142 144 147 148 147 144 141 140 142 143 143 141 141 145 150 155 155 152 154 148 146 147 145 143 137 134 133 133 133 133 134 131 130 130 131 132 128 125 123 121 122 122 121 121 122 123 123 122 121 119 115 111 107 107 108 109 108 106 101 93 92 96 101 107 111 111 108 108 105 102 101 100 98 93 91 89 86 81
138 138 138 137 137 140 143 145 146 146 146 145 141 140 140 138 139 138 137 144 150 155 161 160 157 155 152 150 149 148 144 140 136 135 135 135 135 135 128 123 125 129 128 126 124 123 123 123 122 122 123 124 124 124 123 122 119 115 111 108 108 112 114 111 106 99 90 89 97 105 107 108 109 109 111 110 108 107 102 97 94 89 82 79 75
139 137 135 136 137 140 143 143 143 141 141 138 137 138 137 134 136 139 139 147 155 158 158 156 156 158 156 152 149 147 146 141 137 138 139 139 137 135 129 124 126 128 128 127 125 124 124 123 124 125 124 123 123 123 123 124 122 119 115 110 108 111 113 111 103 96 91 91 99 106 106 104 107 111 113 113 112 108 102 99 95 88 80 77 77
135 135 135 137 137 140 142 141 139 137 137 133 131 130 130 132 135 139 142 149 156 157 154 154 157 161 158 150 148 148 147 141 138 140 141 141 138 136 132 130 130 130 129 127 124 123 123 124 124 123 120 119 121 122 123 124 124 123 118 110 105 103 102 102 97 94 93 93 99 103 101 100 106 111 114 113 109 102 97 98 94 88 86 80 75
133 135 135 136 138 140 141 138 135 132 129 124 122 123 125 127 131 137 141 149 154 152 151 155 158 159 153 147 148 148 147 143 140 142 143 143 140 137 133 131 132 129 127 124 122 120 121 123 120 118 116 116 116 118 121 122 122 121 115 107 103 100 98 100 94 90 93 91 93 96 91 91 100 109 112 111 103 95 94 95 92 89 87 79 72
133 134 132 134 136 138 139 135 133 128 123 118 118 121 124 126 129 135 137 145 149 147 146 151 154 152 150 148 149 147 145 143 142 144 145 144 141 138 134 131 129 125 124 122 120 119 121 121 117 116 114 112 112 113 116 118 120 117 109 101 99 98 93 86 78 78 86 86 83 85 82 82 91 100 105 104 100 95 92 89 87 90 84 76 74
129 129 129 132 134 136 135 131 129 124 121 117 117 118 120 126 130 132 134 142 142 138 140 145 148 151 152 149 148 146 145 143 143 145 145 144 143 138 134 131 127 124 124 122 121 119 119 119 117 116 113 111 109 110 113 114 113 108 102 98 95 95 88 78 70 66 72 78 78 77 74 76 84 91 97 95 94 92 88 84 85 95 91 81 78
124 127 129 131 133 134 131 127 125 121 119 117 117 117 116 120 124 125 125 131 134 132 136 139 143 150 151 147 146 145 144 143 141 142 143 144 142 137 132 129 128 126 125 125 122 118 118 118 117 115 112 111 109 110 110 110 109 106 105 101 93 95 96 84 63 47 49 69 71 69 67 70 76 78 86 87 88 89 87 89 95 100 94 84 80
127 127 128 131 132 131 129 128 125 121 119 118 118 115 113 116 118 119 119 125 133 135 134 133 139 146 145 143 143 142 142 140 139 139 139 141 138 133 130 128 128 128 127 126 123 119 119 119 117 114 111 110 109 108 107 108 109 111 115 110 103 108 102 67 38 30 41 62 61 60 62 64 66 65 75 82 89 95 95 99 102 100 94 87 82
130 127 128 132 131 129 130 130 128 121 117 117 116 113 114 118 119 119 123 129 136 136 132 131 137 141 139 139 140 139 138 135 136 138 138 137 134 132 131 129 128 128 128 127 124 121 120 119 116 113 111 110 108 106 105 106 107 113 119 116 113 119 113 49 26 38 47 53 53 52 60 62 60 61 72 85 95 99 101 102 101 96 92 88 86
129 128 130 132 129 129 132 131 127 120 116 116 114 114 116 120 120 121 124 129 133 133 132 134 137 138 137 137 137 135 134 133 134 137 137 136 133 133 131 128 128 128 128 128 125 122 118 115 112 111 111 109 106 102 99 98 96 102 110 112 115 127 145 62 32 41 43 49 51 47 58 62 58 65 74 88 98 98 101 100 97 94 91 90 89
132 132 131 131 130 132 134 132 127 120 118 119 118 118 119 121 120 120 124 127 127 129 130 134 136 135 135 136 135 133 132 132 132 135 135 134 132 132 130 128 127 126 126 125 122 119 115 111 107 107 108 105 100 94 92 93 90 88 91 101 114 138 160 55 25 25 31 44 51 51 59 61 57 62 64 81 96 100 102 99 97 95 91 90 85
137 131 129 131 134 134 133 134 129 122 120 120 122 123 124 124 122 121 124 126 125 126 128 131 133 133 135 135 134 133 131 131 132 135 134 133 132 131 130 127 126 124 123 122 119 117 115 111 107 105 105 102 96 90 88 90 89 81 79 94 114 143 162 7 10 19 28 43 53 59 62 61 60 58 60 78 96 102 103 101 100 99 94 89 83
140 134 131 133 137 137 135 135 130 125 124 123 124 126 127 129 126 125 126 128 127 126 127 128 129 131 133 134 133 133 132 133 135 136 133 132 132 131 131 128 126 124 122 120 117 117 116 112 108 105 104 102 99 97 89 85 91 87 81 99 121 143 156 354 17 31 35 47 54 62 65 61 62 64 73 86 100 104 102 103 100 99 94 87 83
145 138 134 135 138 141 140 136 132 130 129 127 127 128 129 128 128 131 130 130 131 130 130 128 127 130 132 133 134 134 134 134 134 134 133 133 134 133 131 129 127 125 121 118 114 116 115 110 104 101 104 104 100 100 93 82 83 88 88 100 128 150 22 17 45 39 37 50 54 59 65 65 69 75 87 97 103 103 100 100 97 93 88 83 79
147 141 137 140 141 143 142 139 135 132 131 129 130 130 128 126 128 134 134 131 133 132 131 130 129 131 133 132 131 131 131 131 131 131 132 133 133 131 129 127 125 123 121 116 111 111 112 110 103 98 100 101 100 102 102 88 77 85 98 103 138 174 303 26 49 40 37 44 52 60 68 74 82 87 95 100 102 102 98 93 89 86 80 77 76
147 145 143 144 145 144 142 140 139 136 134 134 133 130 127 126 129 136 136 133 133 133 133 132 131 132 132 130 126 126 126 127 128 128 129 131 131 128 125 122 121 119 118 115 110 106 108 109 104 100 99 98 103 108 118 109 79 76 98 111 163 194 289 19 52 41 36 42 57 66 79 87 93 97 100 102 101 98 93 85 81 79 77 75 73
147 147 144 143 144 144 142 140 140 139 139 139 136 132 129 127 129 137 139 138 138 136 137 135 133 132 131 130 129 127 126 127 128 129 130 130 130 129 124 121 120 115 112 112 107 102 104 108 111 112 104 93 98 103 129 142 98 60 90 95 124 152 138 55 61 50 42 53 66 74 89 97 98 100 101 98 96 90 85 81 76 75 74 72 68
145 146 144 140 141 142 142 140 138 141 141 139 135 134 132 129 129 135 139 141 142 141 140 140 136 133 132 131 132 130 130 132 133 133 132 131 130 127 122 120 120 112 104 104 104 104 106 107 111 113 105 108 113 100 135 164 152 61 95 73 63 89 86 68 59 49 45 57 75 86 95 97 98 96 95 90 86 85 82 80 76 74 74 71 69
145 149 149 141 141 144 144 142 138 139 139 134 131 134 135 131 128 130 133 135 140 144 142 141 139 135 135 134 133 135 136 135 135 134 129 127 125 121 118 115 116 112 103 103 101 99 101 94 101 116 122 128 120 107 118 142 140 125 104 57 41 58 69 65 53 44 43 62 82 89 94 93 95 90 85 84 81 85 82 78 76 73 75 74 72
152 150 153 144 142 143 146 147 140 139 139 133 131 134 133 130 131 132 131 133 138 143 142 141 140 137 138 136 134 137 138 136 134 130 123 121 119 115 114 112 115 116 110 106 92 84 82 84 101 115 119 121 124 120 117 125 146 146 116 42 44 68 71 65 53 45 46 71 81 82 93 88 89 86 81 82 80 83 82 77 77 76 78 77 76
154 151 153 149 145 142 146 149 143 143 142 137 136 135 132 129 132 133 132 135 140 143 142 141 139 135 135 135 134 134 136 137 132 125 120 119 117 115 115 118 125 124 116 108 96 89 82 92 110 112 107 112 129 135 123 121 151 153 124 38 85 96 108 86 48 42 50 70 73 70 85 86 84 86 80 80 80 82 81 79 77 77 79 79 80
154 158 158 154 151 146 148 147 143 146 145 141 139 133 131 134 136 135 130 135 144 146 144 143 142 138 136 138 137 136 136 135 128 120 119 120 120 124 128 133 137 134 129 119 114 114 104 116 127 124 118 117 121 111 114 133 153 162 143 93 111 109 134 133 47 36 38 51 66 66 73 80 81 82 81 78 77 79 81 81 80 79 79 80 79
157 164 158 153 155 151 147 143 144 148 147 143 137 128 131 137 139 136 131 136 147 152 151 150 150 147 146 150 149 145 137 128 122 121 123 122 123 130 136 141 154 160 152 140 141 158 149 139 140 137 138 134 110 78 122 153 161 168 157 123 113 113 135 143 75 63 21 33 65 72 66 73 78 76 76 76 75 79 82 82 82 80 79 77 75
161 163 153 156 163 158 148 143 145 147 146 145 136 128 132 135 137 138 140 147 153 156 159 158 160 162 162 160 157 150 136 129 132 132 128 130 139 150 153 153 160 163 155 151 157 163 161 159 154 140 138 136 122 111 121 144 150 155 151 125 114 134 142 155 171 142 22 22 63 66 62 70 78 71 69 73 76 80 82 84 83 80 79 73 67
160 160 155 163 165 167 160 147 146 147 147 145 137 137 140 137 140 145 146 150 153 154 159 163 166 164 161 160 159 153 143 141 144 141 142 151 162 175 173 162 158 158 151 151 160 159 152 157 158 146 150 152 139 129 126 135 153 155 142 125 123 136 151 171 178 173 239 333 49 52 60 61 62 69 72 71 73 82 86 85 82 78 75 68 61
160 157 159 165 162 169 171 153 150 148 149 148 144 147 146 139 139 141 142 139 139 145 152 160 161 156 154 157 159 158 152 147 144 144 152 161 174 187 179 163 153 158 151 146 158 163 147 144 149 149 153 153 138 131 120 114 172 178 140 123 138 148 160 170 166 180 226 259 342 24 59 52 48 59 65 64 71 83 88 87 84 79 69 61 58
159 158 161 165 164 168 167 164 165 157 153 155 152 150 144 142 139 139 145 147 144 147 152 157 158 155 156 157 158 160 153 145 144 148 155 165 180 181 167 157 154 161 156 144 150 154 143 139 145 145 139 133 124 118 104 75 127 180 157 133 189 171 157 170 165 175 207 205 240 274 102 43 37 33 39 49 61 65 70 83 84 84 76 66 60
156 160 165 166 166 168 168 172 175 165 161 161 157 152 147 148 148 144 151 159 160 155 156 169 170 160 161 161 160 161 154 149 151 154 161 172 180 173 158 159 161 165 164 149 145 142 139 140 143 141 130 124 124 110 84 68 96 137 147 125 215 182 139 166 171 171 179 182 206 235 218 53 36 24 23 33 41 48 50 46 54 74 76 66 58
157 164 166 166 167 172 175 179 177 169 167 165 160 155 153 154 156 154 153 161 170 163 166 185 183 165 165 166 164 163 160 159 159 157 162 169 169 165 160 162 162 161 158 146 141 140 136 134 137 138 126 114 117 101 70 76 113 126 117 62 162 169 143 155 159 157 162 172 186 212 220 215 33 30 25 30 49 59 45 30 25 39 47 45 40
161 166 169 170 172 177 182 183 176 171 169 166 160 155 157 160 159 159 156 161 170 167 173 183 171 167 170 169 167 165 164 166 166 163 163 160 155 157 158 163 166 156 143 137 133 137 134 128 131 133 119 103 101 94 80 105 141 149 155 123 129 149 168 176 169 164 165 163 165 200 218 216 17 37 22 16 53 63 42 31 28 22 27 36 30
164 167 171 175 177 180 186 185 174 171 169 164 160 156 160 164 161 161 162 165 165 164 180 179 162 167 169 167 170 167 167 170 169 169 167 160 155 158 156 163 169 155 140 141 137 135 132 124 125 128 123 112 102 93 89 91 135 166 183 203 196 210 210 239 248 208 209 199 164 180 208 209 270 53 30 346 22 39 30 29 27 18 15 28 23
170 172 175 179 180 181 187 185 173 171 169 161 161 161 164 168 167 166 165 166 163 162 183 192 173 171 171 169 172 170 172 173 171 172 168 164 162 160 152 154 161 151 142 144 140 133 128 122 124 129 123 117 115 103 88 51 20 182 180 189 217 240 249 298 280 224 244 228 186 194 205 205 223 58 45 294 306 353 12 9 9 8 5 19 18
175 179 181 183 182 182 186 183 172 171 167 160 166 170 169 172 173 170 165 165 168 169 184 199 189 178 176 172 171 174 174 173 176 177 173 171 168 160 150 151 156 150 141 139 137 129 127 127 127 134 126 112 117 105 92 79 57 187 152 125 201 228 274 344 336 191 90 117 178 206 206 200 229 277 298 263 274 323 11 356 344 354 355 5 10
176 182 187 186 184 184 186 181 172 171 165 163 175 178 172 174 172 172 169 168 174 177 186 198 194 181 177 173 171 174 174 174 179 182 178 175 173 165 157 155 155 152 148 146 144 135 134 138 134 137 138 132 131 117 109 117 124 126 110 87 92 77 26 352 350 6 81 91 130 187 187 189 242 273 307 275 269 305 340 324 311 324 339 354 2
176 181 187 187 185 185 185 179 172 173 171 172 182 182 177 175 171 173 176 172 175 179 185 193 190 177 174 173 171 174 175 172 179 189 181 172 175 174 169 164 157 160 160 155 153 145 142 143 140 142 153 156 150 135 126 129 123 114 118 140 112 74 37 10 2 11 55 129 99 92 137 173 227 230 223 341 303 308 318 314 303 300 319 345 353
177 180 185 189 189 187 185 179 175 179 181 181 183 183 182 178 173 177 179 175 176 176 181 187 180 173 179 177 176 180 177 168 179 194 181 172 183 180 175 170 164 168 165 155 149 148 151 145 138 146 161 176 170 149 139 137 125 115 149 186 180 131 103 34 331 344 5 12 28 32 76 139 177 176 168 188 222 278 282 314 323 307 316 340 341
180 181 187 192 192 192 188 181 180 184 187 185 183 183 185 181 178 181 181 179 180 176 179 183 174 178 192 187 180 182 175 170 190 198 182 179 187 184 179 172 174 175 163 160 153 146 165 158 138 140 156 185 186 169 160 136 114 117 154 182 192 174 166 22 327 296 345 1 359 3 36 141 147 103 116 195 234 280 267 293 324 311 314 329 328
183 183 190 194 193 195 190 183 185 187 187 185 182 183 185 183 182 184 183 181 182 180 181 182 176 182 195 189 181 180 174 179 199 202 190 187 188 190 186 176 186 189 175 178 173 159 182 178 156 148 158 184 186 183 181 152 135 139 151 179 188 194 209 354 355 7 14 2 5 359 354 352 181 122 76 56 340 276 249 262 303 296 302 309 309
183 184 191 195 194 197 192 186 187 187 185 183 183 184 183 185 186 187 189 185 182 182 183 183 180 185 193 188 181 181 178 186 202 206 201 196 191 193 191 181 191 200 195 191 183 177 192 185 170 165 166 181 184 191 196 187 178 164 148 161 175 239 309 326 323 355 347 332 3 360 348 3 326 273 274 314 292 274 257 261 270 279 292 293 290
Height
1551 1551 1553 1552 1554 1554 1555 1555 1556 1556 1556 1557 1558 1559 1559 1560 1560 1561 1561 1562 1562 1562 1562 1563 1563 1564 1565 1565 1567 1568 1568 1569 1569 1569 1569 1570 1571 1571 1571 1571 1571 1571 1572 1572 1573 1574 1574 1575 1575 1576 1576 1577 1578 1578 1578 1578 1579 1579 1580 1580 1580 1580 1580 1581 1580 1581 1581 1581 1581 1581 1581 1581 1581 1581 1581 1581 1581 1582 1582 1582 1583 1583 1583 1583 1583
1551 1552 1553 1553 1554 1555 1556 1556 1556 1556 1557 1558 1558 1559 1560 1560 1561 1561 1562 1562 1563 1563 1563 1563 1564 1564 1565 1566 1567 1568 1569 1569 1569 1570 1570 1571 1572 1572 1573 1573 1573 1573 1573 1574 1574 1575 1575 1576 1576 1577 1578 1579 1579 1579 1579 1579 1580 1581 1581 1581 1582 1582 1582 1582 1582 1582 1582 1582 1582 1582 1582 1582 1582 1582 1582 1582 1582 1583 1583 1583 1584 1584 1584 1584 1584
1551 1553 1553 1554 1555 1555 1556 1556 1557 1557 1558 1558 1559 1560 1560 1561 1561 1562 1562 1563 1563 1563 1564 1564 1565 1565 1566 1567 1568 1569 1570 1570 1570 1571 1571 1572 1573 1573 1574 1574 1574 1574 1574 1575 1575 1576 1576 1577 1577 1578 1579 1580 1580 1580 1580 1581 1581 1582 1582 1583 1583 1583 1583 1583 1583 1583 1584 1584 1584 1583 1583 1583 1583 1583 1583 1584 1584 1584 1585 1585 1585 1585 1585 1585 1585
1552 1553 1553 1554 1555 1556 1556 1557 1557 1557 1558 1559 1559 1560 1560 1561 1561 1562 1562 1563 1563 1564 1565 1565 1566 1566 1566 1567 1569 1570 1571 1571 1571 1571 1572 1573 1574 1574 1575 1575 1575 1575 1575 1575 1576 1577 1577 1578 1578 1579 1580 1580 1581 1581 1581 1582 1582 1583 1583 1584 1584 1584 1584 1584 1585 1585 1585 1585 1585 1585 1584 1584 1584 1585 1585 1585 1586 1586 1586 1586 1586 1586 1586 1586 1586
1552 1553 1554 1554 1555 1556 1556 1557 1557 1558 1558 1559 1560 1560 1561 1561 1561 1562 1563 1564 1564 1565 1566 1566 1566 1566 1567 1568 1570 1571 1571 1572 1572 1572 1573 1574 1574 1575 1575 1576 1576 1576 1576 1576 1577 1578 1578 1579 1579 1580 1581 1581 1582 1582 1583 1583 1583 1584 1584 1585 1585 1585 1585 1586 1586 1586 1586 1586 1586 1586 1586 1586 1586 1586 1587 1587 1587 1587 1587 1587 1587 1587 1587 1587 1587
1553 1554 1555 1555 1556 1556 1557 1557 1558 1558 1559 1559 1560 1560 1561 1561 1562 1562 1563 1564 1565 1565 1566 1566 1567 1567 1568 1570 1571 1572 1572 1572 1573 1573 1574 1574 1575 1576 1576 1576 1577 1577 1577 1577 1578 1579 1580 1580 1580 1581 1581 1582 1583 1583 1584 1584 1584 1585 1585 1585 1586 1586 1586 1587 1587 1587 1587 1587 1587 1587 1587 1587 1587 1588 1588 1588 1588 1588 1588 1588 1588 1588 1588 1588 1588
1553 1554 1555 1556 1556 1556 1557 1557 1558 1559 1559 1560 1560 1561 1561 1561 1562 1562 1563 1564 1565 1565 1566 1566 1567 1568 1569 1571 1572 1572 1573 1573 1573 1574 1574 1575 1576 1576 1577 1577 1577 1577 1578 1578 1579 1580 1580 1581 1581 1582 1583 1583 1584 1584 1584 1585 1585 1585 1586 1586 1587 1587 1587 1588 1588 1588 1588 1588 1588 1588 1588 1589 1589 1589 1589 1589 1589 1589 1589 1589 1589 1589 1588 1589 1589
1554 1555 1555 1556 1557 1557 1557 1558 1558 1559 1560 1560 1560 1561 1561 1562 1563 1563 1564 1565 1565 1566 1566 1567 1569 1570 1571 1572 1573 1573 1573 1574 1574 1574 1575 1576 1577 1577 1577 1578 1578 1578 1579 1579 1580 1581 1581 1582 1582 1583 1583 1584 1585 1585 1585 1586 1586 1586 1587 1587 1588 1588 1588 1588 1588 1589 1589 1589 1589 1589 1589 1590 1590 1590 1590 1590 1590 1590 1590 1590 1590 1590 1589 1589 1589
1555 1555 1556 1556 1557 1557 1557 1558 1559 1560 1560 1560 1561 1561 1562 1562 1563 1564 1564 1565 1566 1566 1567 1568 1570 1571 1572 1573 1573 1573 1573 1574 1574 1575 1576 1577 1577 1578 1578 1578 1579 1579 1579 1580 1581 1582 1582 1583 1583 1584 1584 1585 1586 1586 1586 1587 1587 1587 1588 1588 1588 1589 1589 1589 1589 1589 1589 1589 1590 1590 1590 1591 1591 1591 1591 1591 1591 1591 1591 1591 1591 1590 1590 1590 1590
1555 1555 1556 1557 1557 1558 1558 1559 1559 1560 1560 1560 1561 1561 1562 1563 1564 1564 1565 1565 1566 1567 1568 1569 1571 1571 1572 1573 1573 1573 1573 1574 1574 1575 1576 1577 1578 1578 1579 1579 1580 1580 1580 1581 1582 1582 1583 1584 1584 1585 1585 1586 1587 1587 1587 1588 1588 1588 1589 1589 1589 1590 1590 1590 1590 1590 1590 1590 1591 1591 1591 1592 1592 1592 1592 1592 1592 1592 1592 1592 1591 1591 1591 1591 1590
1555 1556 1557 1557 1558 1558 1558 1559 1559 1560 1560 1561 1561 1562 1563 1564 1564 1565 1565 1566 1567 1568 1568 1569 1570 1571 1571 1572 1572 1573 1573 1574 1575 1576 1577 1578 1578 1579 1579 1580 1580 1581 1581 1582 1583 1583 1584 1585 1585 1586 1587 1587 1587 1588 1588 1589 1589 1589 1589 1590 1590 1591 1591 1591 1591 1591 1591 1591 1592 1592 1592 1593 1592 1592 1592 1593 1593 1593 1593 1592 1592 1592 1591 1591 1591
1555 1556 1557 1557 1558 1558 1559 1559 1560 1560 1561 1562 1562 1563 1563 1564 1565 1565 1566 1566 1566 1567 1567 1568 1569 1570 1570 1571 1572 1573 1573 1574 1575 1576 1577 1578 1579 1579 1580 1580 1581 1582 1582 1583 1584 1584 1585 1586 1587 1587 1587 1588 1588 1588 1589 1589 1590 1590 1590 1591 1591 1592 1592 1592 1592 1592 1592 1592 1593 1593 1593 1593 1593 1593 1593 1593 1593 1593 1593 1593 1592 1592 1592 1591 1591
1555 1557 1557 1558 1558 1559 1559 1560 1560 1561 1562 1562 1562 1563 1564 1564 1565 1565 1566 1566 1566 1566 1566 1568 1568 1569 1570 1571 1572 1573 1573 1574 1575 1576 1578 1579 1579 1580 1580 1581 1582 1583 1584 1584 1585 1585 1586 1587 1587 1588 1588 1588 1589 1589 1590 1590 1591 1591 1591 1591 1592 1593 1593 1593 1593 1593 1593 1593 1593 1594 1594 1594 1594 1594 1594 1594 1594 1594 1593 1593 1593 1592 1592 1591 1591
1556 1557 1557 1558 1559 1559 1559 1560 1561 1561 1562 1562 1563 1563 1564 1565 1565 1565 1565 1565 1565 1565 1566 1568 1568 1569 1570 1571 1572 1573 1574 1575 1576 1577 1578 1579 1580 1581 1581 1582 1583 1584 1585 1585 1586 1587 1587 1588 1588 1589 1589 1589 1590 1590 1591 1591 1592 1592 1592 1592 1593 1594 1594 1594 1594 1594 1594 1594 1594 1594 1594 1594 1594 1594 1594 1594 1594 1594 1594 1593 1593 1593 1592 1592 1592
1556 1557 1558 1559 1559 1559 1560 1561 1561 1562 1562 1563 1563 1564 1564 1565 1565 1565 1565 1565 1565 1566 1567 1568 1568 1569 1570 1572 1573 1573 1574 1575 1576 1577 1579 1580 1580 1581 1582 1583 1584 1585 1586 1587 1587 1588 1588 1589 1589 1590 1590 1590 1591 1591 1592 1592 1593 1593 1594 1593 1594 1594 1595 1595 1595 1595 1595 1595 1595 1595 1595 1595 1595 1595 1595 1595 1594 1594 1594 1594 1593 1593 1592 1592 1592
1557 1558 1559 1559 1559 1560 1560 1561 1562 1562 1563 1563 1564 1564 1564 1564 1565 1565 1564 1564 1565 1567 1568 1568 1569 1570 1571 1572 1573 1574 1575 1576 1577 1578 1579 1580 1581 1582 1583 1584 1585 1586 1587 1588 1588 1589 1589 1590 1590 1591 1591 1592 1592 1592 1592 1593 1594 1594 1594 1595 1595 1595 1595 1596 1596 1596 1596 1596 1596 1596 1595 1596 1596 1595 1595 1595 1595 1594 1594 1594 1593 1593 1593 1593 1592
1558 1559 1559 1559 1560 1560 1561 1562 1563 1563 1563 1564 1564 1564 1564 1564 1564 1565 1565 1565 1565 1567 1568 1568 1570 1571 1572 1573 1574 1575 1576 1577 1578 1579 1580 1581 1582 1583 1584 1585 1586 1587 1588 1588 1589 1589 1590 1591 1591 1592 1592 1593 1593 1593 1594 1594 1595 1595 1595 1595 1596 1596 1597 1597 1597 1597 1597 1597 1596 1596 1596 1596 1596 1596 1596 1595 1595 1595 1594 1594 1594 1594 1594 1593 1593
1559 1560 1560 1560 1560 1561 1562 1562 1563 1563 1564 1564 1564 1564 1564 1564 1565 1565 1565 1565 1565 1567 1568 1569 1571 1571 1572 1573 1575 1577 1577 1578 1579 1579 1581 1582 1582 1583 1584 1585 1587 1587 1588 1589 1590 1590 1591 1592 1592 1592 1593 1594 1594 1594 1595 1595 1596 1596 1596 1596 1597 1597 1597 1597 1597 1598 1598 1598 1597 1597 1597 1596 1596 1596 1596 1595 1595 1595 1595 1594 1594 1594 1594 1594 1593
1560 1560 1560 1561 1561 1561 1562 1563 1563 1563 1564 1564 1564 1564 1565 1565 1565 1565 1566 1566 1566 1567 1568 1570 1571 1572 1572 1574 1576 1577 1578 1579 1579 1580 1581 1582 1583 1584 1585 1586 1587 1588 1589 1589 1590 1591 1592 1593 1593 1593 1594 1595 1595 1596 1596 1597 1597 1597 1597 1597 1598 1598 1598 1598 1598 1599 1598 1598 1598 1597 1597 1597 1597 1597 1596 1596 1596 1595 1595 1595 1595 1594 1594 1594 1594
1560 1561 1561 1561 1562 1562 1562 1563 1564 1564 1564 1565 1565 1565 1565 1565 1566 1566 1567 1567 1567 1568 1569 1571 1572 1572 1573 1575 1577 1578 1578 1579 1579 1581 1582 1583 1584 1585 1586 1587 1588 1589 1590 1590 1591 1592 1593 1593 1594 1594 1595 1596 1596 1597 1598 1598 1598 1598 1598 1599 1599 1599 1598 1599 1599 1599 1599 1599 1598 1598 1598 1597 1597 1597 1597 1596 1596 1596 1595 1595 1595 1595 1595 1595 1595
1560 1561 1561 1562 1562 1563 1563 1563 1564 1565 1565 1565 1565 1565 1565 1566 1567 1567 1568 1568 1568 1569 1570 1572 1573 1573 1575 1576 1577 1579 1579 1579 1580 1582 1583 1584 1585 1586 1587 1588 1589 1590 1590 1591 1592 1593 1594 1594 1595 1595 1596 1597 1597 1598 1599 1599 1600 1600 1600 1600 1600 1600 1599 1600 1600 1600 1600 1600 1599 1599 1598 1598 1598 1598 1597 1597 1596 1596 1596 1596 1596 1595 1595 1595 1595
1560 1561 1562 1562 1563 1563 1563 1564 1564 1565 1566 1566 1565 1565 1566 1566 1567 1568 1568 1569 1569 1570 1571 1572 1573 1574 1576 1577 1578 1579 1579 1580 1581 1583 1584 1585 1586 1587 1588 1588 1589 1590 1591 1592 1593 1594 1594 1595 1596 1596 1597 1598 1598 1599 1600 1600 1601 1601 1601 1601 1601 1601 1600 1601 1601 1601 1601 1600 1600 1599 1599 1599 1598 1598 1598 1597 1597 1597 1596 1596 1596 1596 1596 1596 1596
1560 1561 1562 1563 1563 1563 1564 1564 1565 1566 1566 1566 1566 1566 1567 1567 1568 1569 1569 1570 1570 1571 1572 1573 1574 1575 1576 1578 1579 1580 1581 1582 1583 1584 1585 1586 1587 1588 1589 1589 1590 1591 1592 1593 1594 1594 1595 1596 1597 1598 1598 1599 1599 1600 1600 1601 1601 1602 1602 1602 1602 1602 1601 1602 1602 1602 1601 1600 1600 1600 1599 1599 1599 1598 1598 1598 1598 1597 1597 1597 1596 1596 1596 1596 1596
1561 1561 1562 1563 1563 1564 1564 1565 1565 1566 1567 1567 1567 1567 1568 1568 1569 1570 1571 1571 1572 1572 1573 1574 1575 1576 1578 1579 1580 1581 1582 1583 1584 1585 1586 1587 1588 1589 1590 1590 1591 1592 1593 1594 1595 1595 1596 1597 1598 1599 1600 1600 1600 1601 1601 1602 1602 1603 1603 1603 1603 1602 1602 1603 1603 1602 1601 1601 1600 1600 1600 1599 1599 1599 1599 1599 1598 1598 1597 1597 1597 1597 1597 1597 1597
1561 1562 1562 1563 1564 1564 1565 1566 1566 1567 1567 1568 1568 1568 1569 1569 1570 1571 1572 1572 1573 1574 1575 1576 1577 1578 1579 1580 1581 1582 1583 1584 1585 1586 1587 1588 1589 1590 1591 1591 1592 1593 1594 1595 1596 1597 1597 1598 1599 1600 1600 1601 1601 1601 1602 1602 1602 1603 1603 1604 1604 1603 1603 1604 1603 1603 1602 1601 1601 1600 1600 1600 1600 1600 1599 1599 1599 1599 1598 1598 1598 1598 1598 1598 1598
1561 1562 1562 1563 1564 1565 1566 1566 1567 1568 1568 1569 1569 1569 1570 1570 1571 1572 1573 1573 1574 1575 1576 1577 1578 1579 1580 1581 1582 1583 1584 1585 1586 1587 1588 1589 1589 1590 1591 1592 1593 1594 1595 1596 1597 1598 1599 1599 1600 1600 1601 1601 1601 1602 1602 1603 1603 1603 1603 1604 1604 1604 1604 1605 1604 1603 1602 1602 1601 1601 1601 1600 1600 1600 1600 1600 1600 1599 1599 1599 1599 1599 1598 1598 1598
1562 1562 1563 1564 1564 1565 1567 1567 1568 1569 1569 1570 1570 1570 1570 1570 1571 1572 1573 1574 1575 1576 1577 1578 1579 1580 1582 1582 1583 1584 1585 1586 1587 1588 1588 1589 1590 1591 1592 1593 1595 1596 1597 1597 1598 1599 1600 1600 1600 1601 1602 1602 1602 1602 1602 1603 1603 1604 1604 1605 1605 1605 1605 1605 1604 1603 1603 1602 1602 1602 1601 1601 1601 1601 1601 1601 1600 1600 1600 1600 1600 1600 1599 1599 1599
1562 1563 1563 1564 1565 1565 1566 1568 1569 1570 1570 1571 1571 1571 1571 1571 1572 1573 1574 1575 1576 1577 1578 1579 1580 1581 1583 1584 1585 1585 1586 1587 1587 1588 1589 1590 1591 1592 1593 1594 1596 1597 1598 1598 1599 1600 1601 1601 1601 1601 1602 1602 1602 1602 1603 1603 1604 1605 1606 1605 1606 1605 1605 1605 1604 1604 1603 1603 1603 1602 1602 1602 1602 1602 1602 1602 1602 1601 1601 1601 1601 1600 1600 1600 1600
1562 1563 1564 1565 1565 1566 1566 1568 1569 1570 1571 1571 1572 1572 1572 1573 1573 1574 1575 1576 1577 1578 1579 1580 1581 1583 1584 1585 1586 1587 1587 1588 1589 1589 1590 1591 1592 1593 1594 1595 1597 1598 1599 1600 1600 1601 1601 1601 1601 1602 1602 1602 1602 1603 1604 1604 1605 1607 1607 1606 1607 1606 1605 1605 1605 1604 1604 1604 1604 1603 1603 1603 1603 1603 1603 1603 1603 1603 1602 1602 1602 1601 1601 1601 1600
1562 1563 1564 1565 1565 1566 1567 1568 1569 1570 1571 1572 1573 1573 1574 1574 1574 1575 1576 1577 1578 1579 1580 1582 1583 1584 1585 1586 1587 1588 1589 1589 1590 1591 1591 1592 1594 1595 1596 1597 1598 1599 1600 1601 1601 1601 1601 1602 1602 1602 1602 1602 1603 1603 1605 1606 1607 1607 1607 1607 1607 1607 1606 1605 1605 1605 1605 1605 1604 1604 1604 1604 1604 1604 1604 1604 1604 1603 1603 1603 1603 1602 1602 1601 1601
1562 1563 1564 1565 1566 1567 1567 1568 1569 1570 1571 1572 1573 1574 1574 1575 1575 1576 1577 1578 1579 1580 1581 1583 1584 1585 1586 1587 1588 1589 1590 1590 1591 1592 1592 1594 1595 1596 1597 1598 1599 1600 1601 1601 1601 1601 1602 1602 1602 1603 1603 1603 1604 1604 1606 1607 1607 1608 1607 1607 1608 1608 1607 1606 1606 1606 1606 1606 1606 1605 1605 1605 1605 1605 1605 1605 1604 1604 1604 1604 1603 1603 1603 1602 1602
1562 1563 1564 1565 1566 1567 1568 1569 1570 1571 1572 1573 1573 1574 1575 1576 1576 1577 1579 1580 1581 1582 1583 1584 1585 1587 1588 1588 1589 1590 1591 1591 1592 1593 1594 1595 1596 1596 1597 1599 1599 1600 1601 1601 1602 1602 1602 1603 1603 1604 1604 1604 1605 1606 1606 1607 1608 1608 1608 1608 1608 1608 1607 1607 1607 1607 1608 1607 1607 1607 1606 1606 1606 1606 1606 1605 1605 1605 1605 1604 1604 1604 1603 1603 1602
1562 1563 1564 1565 1566 1568 1568 1569 1570 1571 1572 1573 1574 1575 1576 1576 1578 1579 1580 1581 1582 1583 1584 1585 1586 1587 1588 1589 1590 1590 1591 1592 1593 1594 1595 1596 1597 1597 1598 1599 1600 1601 1601 1602 1602 1603 1603 1604 1605 1605 1605 1605 1606 1606 1606 1607 1608 1609 1609 1609 1609 1608 1608 1608 1608 1608 1609 1609 1609 1608 1607 1607 1607 1607 1607 1606 1606 1606 1605 1605 1605 1604 1604 1604 1603
1562 1563 1564 1565 1567 1568 1569 1570 1571 1572 1573 1574 1575 1576 1576 1577 1579 1580 1581 1582 1583 1584 1585 1586 1587 1588 1589 1590 1590 1591 1592 1593 1594 1595 1596 1597 1598 1599 1600 1600 1601 1602 1602 1603 1603 1604 1604 1605 1605 1605 1605 1605 1606 1606 1607 1608 1609 1610 1610 1610 1610 1610 1609 1609 1609 1610 1610 1610 1610 1609 1609 1608 1608 1608 1607 1607 1607 1606 1606 1606 1606 1605 1605 1605 1604
1563 1563 1564 1565 1566 1568 1570 1571 1572 1573 1573 1574 1575 1576 1577 1578 1580 1581 1582 1583 1584 1585 1586 1587 1588 1589 1590 1590 1591 1592 1593 1594 1595 1596 1597 1598 1599 1600 1601 1601 1602 1603 1603 1603 1604 1604 1605 1605 1605 1605 1605 1605 1605 1606 1607 1608 1609 1610 1610 1610 1610 1610 1610 1610 1610 1611 1611 1611 1611 1610 1610 1610 1609 1609 1609 1608 1608 1607 1607 1607 1606 1606 1606 1606 1605
1564 1564 1565 1566 1566 1568 1569 1571 1572 1573 1574 1575 1575 1576 1578 1579 1580 1582 1583 1584 1585 1586 1587 1588 1589 1590 1590 1591 1591 1592 1594 1595 1597 1598 1599 1600 1600 1601 1602 1602 1603 1603 1604 1604 1604 1605 1605 1605 1605 1605 1605 1605 1606 1607 1608 1609 1609 1610 1610 1611 1610 1610 1611 1611 1611 1611 1611 1611 1611 1611 1611 1611 1611 1610 1610 1609 1608 1608 1608 1607 1607 1607 1607 1607 1606
1564 1565 1566 1567 1567 1568 1569 1570 1572 1573 1574 1575 1575 1577 1579 1580 1581 1583 1584 1585 1586 1587 1588 1589 1589 1590 1591 1591 1592 1593 1595 1596 1597 1598 1599 1600 1601 1602 1602 1602 1603 1603 1604 1604 1605 1605 1605 1605 1605 1605 1605 1606 1607 1607 1608 1609 1610 1610 1610 1611 1611 1611 1611 1612 1612 1611 1611 1611 1611 1611 1611 1611 1611 1611 1610 1609 1609 1609 1609 1608 1608 1608 1608 1607 1607
1565 1566 1567 1568 1568 1568 1569 1570 1571 1572 1574 1574 1576 1578 1579 1581 1582 1583 1584 1585 1586 1587 1588 1589 1590 1591 1591 1592 1593 1594 1595 1596 1598 1599 1599 1600 1601 1601 1602 1602 1603 1604 1604 1605 1605 1605 1605 1605 1606 1606 1606 1606 1607 1607 1608 1608 1610 1610 1610 1611 1611 1611 1611 1612 1612 1612 1612 1611 1611 1611 1611 1611 1612 1612 1611 1610 1610 1610 1610 1609 1609 1609 1608 1608 1607
1565 1567 1567 1568 1569 1570 1570 1570 1571 1573 1574 1575 1577 1578 1580 1581 1583 1584 1585 1586 1587 1588 1589 1589 1590 1591 1592 1593 1594 1595 1596 1597 1598 1599 1600 1600 1600 1601 1602 1602 1603 1604 1604 1605 1605 1605 1605 1606 1606 1606 1607 1607 1607 1608 1608 1608 1608 1609 1610 1611 1611 1611 1611 1612 1612 1612 1612 1611 1611 1611 1612 1612 1612 1612 1612 1611 1610 1610 1610 1610 1609 1609 1608 1608 1608
1564 1566 1567 1568 1569 1570 1571 1571 1572 1573 1575 1576 1577 1579 1580 1582 1583 1585 1586 1587 1588 1589 1589 1590 1590 1592 1592 1593 1595 1595 1597 1597 1598 1599 1600 1600 1600 1601 1602 1602 1603 1604 1604 1604 1605 1605 1605 1606 1606 1607 1607 1607 1607 1607 1607 1608 1608 1609 1610 1611 1610 1611 1611 1611 1612 1612 1611 1611 1611 1611 1612 1612 1612 1612 1612 1611 1611 1611 1611 1611 1610 1610 1609 1609 1608
1564 1566 1567 1568 1569 1570 1571 1572 1573 1574 1575 1576 1578 1579 1580 1582 1583 1585 1586 1588 1588 1589 1590 1590 1591 1592 1593 1594 1595 1596 1597 1598 1598 1599 1599 1600 1600 1601 1602 1602 1603 1604 1604 1604 1605 1605 1606 1606 1606 1607 1607 1607 1607 1607 1607 1608 1609 1610 1610 1611 1611 1611 1611 1611 1611 1611 1611 1611 1611 1611 1611 1612 1613 1612 1612 1612 1611 1611 1611 1611 1611 1610 1610 1609 1609
1564 1566 1567 1568 1569 1570 1571 1572 1573 1575 1576 1577 1578 1579 1581 1582 1583 1584 1586 1588 1588 1589 1590 1590 1591 1592 1593 1594 1595 1596 1597 1598 1598 1599 1599 1600 1601 1601 1602 1603 1603 1604 1604 1604 1605 1606 1606 1606 1606 1607 1607 1607 1607 1607 1607 1609 1609 1610 1610 1611 1611 1611 1611 1611 1611 1611 1611 1612 1612 1612 1612 1613 1613 1612 1612 1612 1612 1612 1611 1611 1611 1611 1610 1609 1609
1564 1565 1566 1568 1569 1570 1571 1572 1574 1575 1576 1577 1579 1580 1582 1583 1584 1585 1586 1588 1588 1589 1590 1590 1591 1592 1592 1594 1595 1596 1597 1598 1598 1599 1599 1600 1601 1601 1602 1603 1603 1604 1604 1604 1605 1606 1606 1606 1606 1607 1607 1607 1607 1607 1608 1609 1610 1610 1611 1611 1611 1611 1611 1611 1611 1611 1611 1611 1611 1612 1612 1612 1613 1612 1612 1612 1612 1612 1611 1611 1611 1611 1610 1609 1609
1563 1565 1566 1567 1569 1570 1571 1572 1574 1575 1576 1578 1579 1580 1582 1583 1584 1586 1586 1588 1589 1590 1590 1590 1591 1592 1592 1593 1594 1596 1597 1597 1598 1599 1599 1600 1601 1601 1602 1602 1603 1604 1604 1605 1605 1606 1606 1606 1606 1607 1607 1607 1607 1607 1608 1609 1610 1611 1611 1611 1611 1611 1611 1611 1611 1610 1611 1611 1611 1612 1611 1612 1612 1612 1612 1612 1612 1612 1611 1611 1611 1611 1610 1610 1609
1562 1564 1565 1566 1568 1569 1570 1572 1573 1575 1576 1578 1579 1580 1582 1583 1584 1585 1586 1587 1589 1589 1590 1590 1591 1592 1592 1593 1594 1595 1596 1597 1598 1598 1599 1600 1601 1601 1602 1602 1603 1604 1604 1605 1605 1606 1606 1606 1606 1607 1607 1608 1607 1608 1608 1609 1610 1611 1612 1612 1612 1612 1611 1611 1610 1610 1611 1611 1611 1612 1612 1612 1612 1612 1612 1612 1612 1611 1611 1611 1611 1611 1610 1610 1609
1560 1563 1564 1566 1567 1568 1570 1571 1573 1575 1576 1578 1579 1580 1581 1582 1583 1584 1585 1586 1587 1589 1589 1589 1590 1591 1592 1593 1594 1595 1596 1597 1597 1598 1599 1600 1601 1601 1602 1603 1603 1604 1604 1605 1605 1606 1606 1606 1607 1607 1608 1608 1608 1608 1609 1609 1610 1611 1612 1612 1612 1612 1612 1611 1611 1610 1611 1611 1612 1613 1612 1612 1612 1612 1612 1612 1611 1611 1611 1611 1611 1611 1610 1610 1609
1559 1562 1563 1565 1566 1568 1569 1571 1573 1574 1576 1577 1578 1579 1580 1582 1583 1584 1585 1586 1586 1588 1589 1590 1590 1591 1592 1593 1593 1594 1595 1597 1597 1598 1599 1600 1600 1601 1602 1603 1603 1604 1604 1605 1605 1605 1606 1606 1607 1608 1608 1608 1609 1609 1609 1610 1610 1611 1611 1612 1612 1612 1612 1612 1611 1611 1611 1612 1612 1612 1612 1612 1612 1611 1611 1612 1611 1611 1611 1611 1611 1610 1610 1610 1609
1559 1561 1562 1563 1565 1567 1569 1570 1572 1574 1575 1576 1577 1579 1580 1581 1583 1584 1585 1586 1587 1588 1589 1590 1590 1591 1592 1593 1594 1594 1595 1596 1597 1597 1598 1599 1600 1601 1602 1602 1603 1604 1604 1605 1605 1606 1606 1607 1607 1608 1608 1608 1609 1610 1610 1610 1610 1610 1611 1611 1611 1611 1612 1611 1612 1612 1612 1612 1612 1612 1612 1612 1612 1612 1612 1612 1612 1611 1611 1611 1610 1610 1610 1609 1609
1558 1560 1561 1562 1564 1566 1568 1569 1571 1573 1574 1575 1577 1578 1580 1581 1583 1584 1585 1586 1587 1588 1589 1589 1591 1591 1592 1593 1594 1594 1595 1596 1597 1597 1598 1599 1600 1601 1602 1602 1603 1603 1604 1605 1605 1606 1606 1607 1607 1607 1608 1609 1609 1610 1610 1610 1610 1610 1610 1611 1611 1612 1612 1612 1612 1612 1612 1612 1612 1612 1612 1612 1612 1612 1612 1612 1612 1611 1611 1610 1609 1609 1609 1609 1608
1557 1559 1560 1561 1563 1565 1567 1568 1570 1571 1573 1575 1576 1578 1579 1581 1582 1583 1584 1585 1586 1588 1588 1589 1591 1591 1592 1592 1593 1594 1595 1595 1596 1597 1598 1599 1600 1600 1601 1602 1603 1603 1604 1605 1605 1606 1606 1607 1607 1607 1608 1609 1609 1610 1610 1610 1610 1610 1610 1611 1611 1612 1612 1612 1612 1612 1612 1612 1612 1612 1612 1612 1612 1611 1611 1611 1611 1610 1609 1609 1608 1608 1608 1608 1608
1555 1557 1558 1559 1562 1563 1565 1567 1569 1570 1572 1574 1575 1577 1578 1580 1581 1583 1584 1585 1586 1587 1588 1589 1590 1591 1591 1592 1593 1594 1594 1595 1596 1597 1598 1598 1599 1600 1601 1602 1602 1603 1604 1604 1605 1606 1606 1607 1607 1607 1608 1609 1609 1610 1610 1610 1611 1610 1611 1611 1611 1612 1612 1612 1612 1612 1612 1612 1612 1611 1611 1611 1611 1611 1611 1611 1610 1609 1608 1609 1609 1608 1608 1608 1608